Flag for Kazakhstan Weather past 2 weeks in Shymkent, Kazakhstan

Now
61 °F

Mostly cloudy.


Feels Like: 61 °F
Forecast: 43 / 65 °F
Wind: 13 mph from South

Location: Shymkent Airport


UV Index: 0 (Low)

Visibility: N/A


Pressure: 29.89 "Hg

Humidity: 68%

Dew point: 50 °F

Location of ShymkentLocation

Historic Weather in Shymkent

°F

Shymkent temperature yesterday

Maximum temperature yesterday: 86 °F (at 3:00 PM)
Minimum temperature yesterday: 48 °F (at 5:00 AM)
Average temperature yesterday: 67 °F

Past Weeks' High & Low Weather Summary

 TemperatureHumidityPressure
High86 °F (Apr 24, 3:00 PM)100% (Apr 12, 3:00 PM)30.42 "Hg (Apr 12, 3:00 PM)
Low34 °F (Apr 14, 5:00 AM)18% (Apr 24, 12:00 PM)29.62 "Hg (Apr 24, 4:00 PM)
Average57 °F54%30.07 "Hg
* Reported Apr 10 9:00 AM — Apr 25 9:00 AM, Shymkent, Weather by CustomWeather, © 2014

Note: Actual official high and low records may vary slightly from our data, if they occured in-between our weather recording intervals... More about our weather records

Advertising

Historic Weather Conditions — Data for Previous 24 hours

 ConditionsComfort  
Time TempWeatherWind HumidityBarometerVisibility
9:00 AM
Apr 25
61 °FMostly cloudy.10 mph68%29.89 "HgN/A
8:30 AM59 °FMostly cloudy.10 mph68%29.89 "HgN/A
8:00 AM59 °FMore clouds than sun.10 mph72%29.86 "HgN/A
7:30 AM57 °FSunny.10 mph77%29.86 "Hg10 mi
7:00 AM57 °FSunny.10 mph72%29.86 "Hg10 mi
6:30 AM57 °FSunny.10 mph72%29.86 "Hg10 mi
6:00 AM57 °FSunny.6 mph77%29.86 "Hg10 mi
5:30 AM57 °FMore clouds than sun.8 mph77%29.86 "HgN/A
5:00 AM57 °FMostly cloudy.8 mph77%29.83 "HgN/A
4:30 AM57 °FMostly cloudy.13 mph77%29.83 "HgN/A
4:00 AM57 °FMostly cloudy.13 mph77%29.83 "HgN/A
3:30 AM59 °FMostly cloudy.10 mph77%29.83 "HgN/A
3:00 AM61 °FMostly cloudy.10 mph72%29.83 "HgN/A
2:30 AM61 °FMostly cloudy.13 mph77%29.80 "HgN/A
2:00 AM61 °FSprinkles. Mostly cloudy.13 mph77%29.80 "HgN/A
1:30 AM61 °FSprinkles. Mostly cloudy.13 mph77%29.83 "HgN/A
1:00 AM61 °FMostly cloudy.10 mph83%29.80 "HgN/A
12:30 AM63 °FMostly cloudy.10 mph77%29.80 "HgN/A
12:00 AM63 °FMostly cloudy.10 mph77%29.80 "HgN/A
11:30 PM
Apr 24
64 °FMostly cloudy.8 mph73%29.80 "HgN/A
11:00 PM63 °FSprinkles. Overcast.6 mph77%29.80 "HgN/A
10:30 PM63 °FSprinkles. Mostly cloudy.8 mph77%29.77 "HgN/A
10:00 PM64 °FSprinkles. Mostly cloudy.8 mph73%29.77 "HgN/A
9:30 PM64 °FMostly cloudy.17 mph73%29.77 "HgN/A
9:00 PM70 °FMostly cloudy.13 mph53%29.71 "HgN/A
8:30 PM70 °FSprinkles. Mostly cloudy.15 mph57%29.68 "HgN/A
8:00 PM75 °FMostly cloudy.22 mph41%29.65 "HgN/A
7:30 PM75 °FMostly cloudy.17 mph39%29.65 "HgN/A
7:00 PM75 °FMostly cloudy.6 mph47%29.62 "HgN/A
6:30 PM77 °FMore clouds than sun.10 mph44%29.62 "HgN/A
6:00 PM79 °FMore clouds than sun.8 mph39%29.62 "HgN/A
5:30 PM82 °FSunny.8 mph32%29.62 "Hg10 mi
5:00 PM86 °FSunny.10 mph27%29.62 "Hg10 mi
4:30 PM84 °FPassing clouds.8 mph29%29.62 "HgN/A
4:00 PM84 °FPassing clouds.6 mph27%29.62 "HgN/A
3:30 PM84 °FPassing clouds.6 mph25%29.65 "HgN/A
3:00 PM86 °FPassing clouds.3 mph20%29.65 "HgN/A
2:30 PM82 °FSunny.1 mph26%29.65 "Hg10 mi
2:00 PM82 °FSunny.3 mph23%29.68 "Hg10 mi
1:00 PM81 °FSunny.1 mph24%29.71 "Hg10 mi
12:30 PM81 °FPassing clouds.3 mph26%29.71 "HgN/A
12:00 PM79 °FPassing clouds.6 mph18%29.74 "HgN/A
11:30 AM77 °FSunny.13 mph21%29.74 "Hg10 mi
11:00 AM77 °FPassing clouds.6 mph22%29.77 "HgN/A
10:30 AM75 °FPassing clouds.6 mph29%29.77 "HgN/A
10:00 AM73 °FPassing clouds.3 mph27%29.77 "HgN/A
Weather by CustomWeather, © 2014

See weather overview